TimeMDT,TemperatureF,Dew PointF,Humidity,Sea Level PressureIn,VisibilityMPH,Wind Direction,Wind SpeedMPH,Gust SpeedMPH,PrecipitationIn,Events,Conditions,WindDirDegrees,DateUTC
12:15 AM,61.2,52.2,72,30.11,10.0,SE,4.6,-,N/A,,Overcast,140,2013-07-28 06:15:00
12:35 AM,60.8,52.2,73,30.10,10.0,SSE,3.5,-,N/A,,Overcast,150,2013-07-28 06:35:00
12:55 AM,60.8,52.3,74,30.09,10.0,SSE,4.6,-,N/A,,Overcast,160,2013-07-28 06:55:00
1:15 AM,60.6,52.2,74,30.08,10.0,South,5.8,-,N/A,,Overcast,180,2013-07-28 07:15:00
1:35 AM,60.4,52.7,76,30.08,10.0,Calm,Calm,-,N/A,,Overcast,0,2013-07-28 07:35:00
1:55 AM,60.8,52.7,75,30.07,10.0,SSE,3.5,-,N/A,,Overcast,160,2013-07-28 07:55:00
2:15 AM,60.8,52.9,75,30.06,10.0,SE,6.9,-,N/A,,Overcast,140,2013-07-28 08:15:00
2:35 AM,60.3,52.9,77,30.05,10.0,SE,3.5,-,N/A,,Mostly Cloudy,140,2013-07-28 08:35:00
2:55 AM,60.1,52.9,77,30.06,10.0,SSE,3.5,-,N/A,,Mostly Cloudy,160,2013-07-28 08:55:00
3:15 AM,60.3,53.1,77,30.05,10.0,SSE,3.5,-,N/A,,Overcast,160,2013-07-28 09:15:00
3:35 AM,59.9,52.9,78,30.04,10.0,SSE,5.8,-,N/A,,Overcast,150,2013-07-28 09:35:00
3:55 AM,59.4,53.1,80,30.04,10.0,ESE,3.5,-,N/A,,Mostly Cloudy,110,2013-07-28 09:55:00
4:15 AM,59.9,53.1,78,30.04,10.0,SSE,4.6,-,N/A,,Overcast,160,2013-07-28 10:15:00
4:35 AM,59.9,53.1,78,30.04,10.0,SSE,6.9,-,N/A,,Overcast,150,2013-07-28 10:35:00
4:55 AM,59.5,52.7,78,30.04,10.0,South,8.1,-,N/A,,Overcast,180,2013-07-28 10:55:00
5:15 AM,59.2,50.4,73,30.05,10.0,South,4.6,-,N/A,,Overcast,180,2013-07-28 11:15:00
5:35 AM,59.2,50.5,73,30.05,10.0,South,3.5,-,N/A,,Overcast,180,2013-07-28 11:35:00
5:55 AM,59.4,50.2,72,30.05,10.0,Calm,Calm,-,N/A,,Overcast,0,2013-07-28 11:55:00
6:15 AM,59.5,49.1,68,30.04,10.0,SSE,3.5,-,N/A,,Overcast,160,2013-07-28 12:15:00
6:35 AM,59.9,48.7,67,30.04,10.0,SE,3.5,-,N/A,,Overcast,140,2013-07-28 12:35:00
6:55 AM,59.9,49.3,68,30.04,10.0,SE,3.5,-,N/A,,Overcast,140,2013-07-28 12:55:00
7:15 AM,60.1,50.4,70,30.05,10.0,Calm,Calm,-,N/A,,Overcast,0,2013-07-28 13:15:00
7:35 AM,60.3,50.9,71,30.05,10.0,SE,4.6,-,N/A,,Overcast,140,2013-07-28 13:35:00
7:55 AM,61.0,51.4,71,30.04,10.0,SSE,6.9,-,N/A,,Overcast,160,2013-07-28 13:55:00
8:15 AM,61.2,51.8,71,30.04,10.0,SSE,8.1,-,N/A,,Overcast,150,2013-07-28 14:15:00
8:35 AM,61.7,52.2,71,30.04,10.0,SE,6.9,-,N/A,,Overcast,140,2013-07-28 14:35:00
8:55 AM,62.1,52.9,72,30.04,10.0,SSE,11.5,-,N/A,,Overcast,160,2013-07-28 14:55:00
9:15 AM,61.9,52.7,72,30.04,10.0,South,8.1,-,N/A,,Overcast,170,2013-07-28 15:15:00
9:35 AM,61.0,52.5,74,30.04,10.0,SSE,9.2,16.1,N/A,,Overcast,150,2013-07-28 15:35:00
9:55 AM,60.8,52.7,75,30.05,10.0,SE,8.1,-,N/A,,Overcast,140,2013-07-28 15:55:00
10:15 AM,60.3,52.7,76,30.05,10.0,SE,9.2,-,N/A,,Overcast,130,2013-07-28 16:15:00
10:35 AM,60.4,52.9,76,30.06,10.0,SE,9.2,-,N/A,,Overcast,140,2013-07-28 16:35:00
10:55 AM,61.0,53.4,76,30.06,10.0,SE,8.1,-,N/A,,Overcast,130,2013-07-28 16:55:00
11:15 AM,60.4,53.8,79,30.06,10.0,SE,9.2,-,N/A,,Overcast,130,2013-07-28 17:15:00
11:35 AM,60.3,54.7,82,30.05,10.0,SE,11.5,-,N/A,,Overcast,140,2013-07-28 17:35:00
11:55 AM,59.9,55.2,84,30.04,10.0,SE,10.4,-,N/A,,Overcast,140,2013-07-28 17:55:00
12:15 PM,59.9,55.4,85,30.05,7.0,SE,11.5,-,N/A,,Overcast,140,2013-07-28 18:15:00
12:35 PM,59.9,55.8,86,30.05,5.0,SE,9.2,-,N/A,,Overcast,130,2013-07-28 18:35:00
12:55 PM,59.5,56.3,89,30.05,4.0,SSE,8.1,-,N/A,,Overcast,150,2013-07-28 18:55:00
1:15 PM,59.9,55.8,86,30.05,10.0,SE,8.1,-,N/A,,Overcast,140,2013-07-28 19:15:00
1:35 PM,60.1,55.9,86,30.05,10.0,SE,6.9,-,N/A,,Overcast,140,2013-07-28 19:35:00
1:55 PM,60.1,55.9,86,30.05,10.0,SE,6.9,-,N/A,,Overcast,140,2013-07-28 19:55:00
2:15 PM,60.1,55.9,86,30.04,10.0,SE,6.9,-,N/A,,Overcast,140,2013-07-28 20:15:00
2:35 PM,60.6,56.3,86,30.04,10.0,SSE,6.9,-,N/A,,Overcast,150,2013-07-28 20:35:00
2:55 PM,61.0,56.3,85,30.03,10.0,SE,5.8,-,N/A,,Overcast,140,2013-07-28 20:55:00
3:15 PM,61.3,56.5,84,30.03,10.0,SE,10.4,-,N/A,,Overcast,130,2013-07-28 21:15:00
3:35 PM,61.7,56.8,84,30.02,10.0,SE,8.1,-,N/A,,Overcast,140,2013-07-28 21:35:00
3:55 PM,61.7,57.0,85,30.01,10.0,SE,12.7,-,N/A,,Overcast,140,2013-07-28 21:55:00
4:15 PM,61.7,57.6,86,30.02,10.0,SE,9.2,-,N/A,Rain,Light Rain,130,2013-07-28 22:15:00
4:35 PM,61.5,57.6,87,30.01,10.0,ESE,9.2,-,N/A,,Light Drizzle,120,2013-07-28 22:35:00
4:55 PM,61.5,57.4,86,30.00,10.0,SSE,10.4,-,N/A,,Overcast,150,2013-07-28 22:55:00
5:15 PM,61.5,57.2,86,30.01,10.0,SE,10.4,-,N/A,,Overcast,140,2013-07-28 23:15:00
5:35 PM,61.3,57.0,86,30.01,10.0,SSE,8.1,-,N/A,,Overcast,160,2013-07-28 23:35:00
5:55 PM,61.3,57.2,86,30.01,10.0,SSE,8.1,-,N/A,,Overcast,160,2013-07-28 23:55:00
6:15 PM,61.2,57.2,87,30.01,10.0,SE,9.2,-,N/A,,Overcast,140,2013-07-29 00:15:00
6:35 PM,60.4,57.0,88,30.00,10.0,SE,9.2,-,N/A,,Overcast,140,2013-07-29 00:35:00
6:55 PM,60.4,56.8,88,30.01,10.0,SE,8.1,-,N/A,,Overcast,140,2013-07-29 00:55:00
7:15 PM,60.8,56.8,87,30.01,10.0,SE,6.9,-,N/A,,Overcast,140,2013-07-29 01:15:00
7:35 PM,60.8,56.8,87,30.02,10.0,SE,6.9,-,N/A,,Overcast,140,2013-07-29 01:35:00
7:55 PM,60.3,57.2,90,30.03,10.0,SE,5.8,-,N/A,,Overcast,140,2013-07-29 01:55:00
8:35 PM,59.9,57.2,91,30.02,10.0,SSE,9.2,-,N/A,,Overcast,160,2013-07-29 02:35:00
8:55 PM,59.9,57.2,91,30.03,10.0,SE,5.8,-,N/A,,Overcast,140,2013-07-29 02:55:00
9:15 PM,59.9,57.2,91,30.04,10.0,SE,9.2,-,N/A,,Overcast,140,2013-07-29 03:15:00
9:35 PM,59.9,57.6,92,30.04,7.0,SE,5.8,-,N/A,,Overcast,140,2013-07-29 03:35:00
9:55 PM,59.5,57.6,93,30.04,4.0,ESE,5.8,-,N/A,,Overcast,120,2013-07-29 03:55:00
10:15 PM,59.4,57.6,94,30.03,2.0,SE,6.9,-,N/A,,Overcast,140,2013-07-29 04:15:00
10:35 PM,59.4,57.7,94,30.03,2.5,SE,5.8,-,N/A,,Overcast,140,2013-07-29 04:35:00
10:55 PM,59.5,58.1,95,30.02,3.0,SE,6.9,-,N/A,,Overcast,130,2013-07-29 04:55:00
11:15 PM,59.7,58.1,94,30.03,3.0,SE,6.9,-,N/A,,Overcast,140,2013-07-29 05:15:00
11:35 PM,59.9,58.1,94,30.03,5.0,SE,5.8,-,N/A,,Overcast,140,2013-07-29 05:35:00
11:55 PM,59.9,58.1,94,30.03,4.0,ESE,3.5,-,N/A,,Overcast,110,2013-07-29 05:55:00